225P/LINEAR (2002)

Japanese version
Home page
Updated on September 13, 2009

---------------------------------------------------------------------

* Profile

Designation 225P/2002 T1
Discovery Date October 3, 2002
Magnitude 16.2 mag
Discoverer Lincoln Laboratory Near-Earth Asteroid Research project

* Orbital Elements

Epoch 2002 Oct. 13.0 TT = JDT 2452560.5
T 2002 Oct. 8.08524 TT                                  MPC
q   1.1919828            (2000.0)            P               Q
n   0.14766341     Peri.    1.31153     +0.95763766     -0.27201905
a   3.5450371      Node    15.50376     +0.26088857     +0.68050405
e   0.6637601      Incl.   20.71024     +0.12193141     +0.68038215
P   6.67

* Finding Charts

* Magnitudes Graph

        m1 = 18.5 + 5 log d + 10.0 log r

---------------------------------------------------------------------

The orbital elements are published on M.P.E.C. 2009-Q69.
The charts are made with StellaNavigator Ver.2.0 for Windows (AstroArts / ASCII).
The magnitudes graphs are made with Comet for Windows.

---------------------------------------------------------------------

Copyright(C) Seiichi Yoshida (comet@aerith.net). All rights reserved.